This is the latest recevied weather packets stored in our database for station/object KI6SYE. If no packets are shown the sender has not sent any weather packets the latest 10 day(s).
| Time | Temp. | Humidity | Pressure | Rain* | Wind** | Luminosity | Snow |
|---|---|---|---|---|---|---|---|
| 1788286413 | 21.67° C | 75% | 1015.6 hPa | 0 mm | - | 664 W/m² | - |
| 1788286112 | 21.67° C | 76% | 1015.9 hPa | 0 mm | - | 655 W/m² | - |
| 1788285811 | 21.67° C | 75% | 1015.7 hPa | 0 mm | - | 648 W/m² | - |
| 1788285510 | 21.67° C | 76% | 1015.8 hPa | 0 mm | - | 641 W/m² | - |
| 1788285205 | 21.67° C | 76% | 1015.8 hPa | 0 mm | - | 632 W/m² | - |
| 1788284900 | 21.67° C | 75% | 1015.8 hPa | 0 mm | - | 622 W/m² | - |
| 1788284596 | 21.67° C | 77% | 1016 hPa | 0 mm | - | 608 W/m² | - |
| 1788284291 | 21.67° C | 76% | 1016.1 hPa | 0 mm | - | 599 W/m² | - |
| 1788283986 | 21.67° C | 76% | 1015.9 hPa | 0 mm | - | 588 W/m² | - |
| 1788283683 | 21.67° C | 77% | 1015.7 hPa | 0 mm | - | 580 W/m² | - |
| 1788283382 | 21.67° C | 77% | 1015.7 hPa | 0 mm | - | 566 W/m² | - |
| 1788283080 | 21.11° C | 78% | 1015.5 hPa | 0 mm | - | 550 W/m² | - |
| 1788282779 | 21.11° C | 78% | 1015.7 hPa | 0 mm | - | 543 W/m² | - |
| 1788282479 | 21.67° C | 77% | 1015.6 hPa | 0 mm | - | 527 W/m² | - |
| 1788282178 | 21.67° C | 77% | 1015.7 hPa | 0 mm | - | 522 W/m² | - |
| 1788281877 | 21.11° C | 78% | 1015.6 hPa | 0 mm | - | 488 W/m² | - |
| 1788281572 | 21.11° C | 79% | 1015.5 hPa | 0 mm | - | 502 W/m² | - |
| 1788281268 | 21.11° C | 78% | 1015.5 hPa | 0 mm | - | 526 W/m² | - |
| 1788280964 | 21.11° C | 79% | 1015.4 hPa | 0 mm | - | 451 W/m² | - |
| 1788280659 | 20.56° C | 80% | 1015.6 hPa | 0 mm | - | 512 W/m² | - |
| 1788280358 | 21.11° C | 79% | 1015.6 hPa | 0 mm | - | 260 W/m² | - |
| 1788280054 | 20.56° C | 80% | 1015.5 hPa | 0 mm | - | 261 W/m² | - |
| 1788279753 | 20.56° C | 82% | 1015.7 hPa | 0 mm | - | 242 W/m² | - |
| 1788279452 | 20.56° C | 80% | 1015.6 hPa | 0 mm | - | 206 W/m² | - |
| 1788279147 | 20.56° C | 81% | 1015.5 hPa | 0 mm | - | 243 W/m² | - |
* Rain latest hour (hover to see other rain measurements)
** Current wind speed in m/s (hover to see current wind gust speed)